FW2982 Weather Reports


time (UTC)temp
C
wind
direction
speed
KPH
gust
KPH
rain 1hr
cm
rain 24hr
cm
rain mn
cm
humidity
%
barometer
mb
20260503052714 7 268 0.0 3.2 0.00 0.00 0.00 69 1011.7
20260503052452 7 266 1.6 3.2 0.00 0.00 0.00 68 1011.8
20260503051713 7 262 0.0 1.6 0.00 0.00 0.00 68 1011.8
20260503051212 7 262 0.0 1.6 0.00 0.00 0.00 67 1011.8
20260503050712 7 262 0.0 3.2 0.00 0.00 0.00 67 1011.9
20260503050212 7 262 0.0 11.3 0.00 0.00 0.00 66 1011.8
20260503045712 7 262 0.0 11.3 0.00 0.00 0.00 66 1011.8
20260503045211 7 296 0.0 4.8 0.00 0.00 0.00 66 1011.8
20260503044712 7 298 1.6 4.8 0.00 0.00 0.00 66 1011.9
20260503044211 7 59 0.0 3.2 0.00 0.00 0.00 65 1012.0
20260503043712 7 59 0.0 6.4 0.00 0.00 0.00 65 1011.9
20260503043212 8 59 0.0 6.4 0.00 0.00 0.00 65 1011.9
20260503042711 8 180 0.0 3.2 0.00 0.00 0.00 64 1011.9
20260503042211 8 180 0.0 3.2 0.00 0.00 0.00 63 1011.8
20260503041711 8 295 0.0 3.2 0.00 0.00 0.00 63 1011.9
20260503041211 8 300 0.0 3.2 0.00 0.00 0.00 63 1011.9
20260503040711 8 302 0.0 6.4 0.00 0.00 0.00 62 1011.9
20260503040210 8 302 0.0 6.4 0.00 0.00 0.00 61 1011.9
20260503035711 9 307 3.2 6.4 0.00 0.00 0.00 61 1011.9
20260503035211 9 309 1.6 3.2 0.00 0.00 0.00 61 1011.9
20260503034712 9 14 0.0 4.8 0.00 0.00 0.00 60 1011.9
20260503034210 9 0 1.6 4.8 0.00 0.00 0.00 61 1011.9
20260503033711 9 272 0.0 4.8 0.00 0.00 0.00 60 1011.9
20260503033211 9 243 1.6 6.4 0.00 0.00 0.00 60 1011.8
20260503032712 10 39 0.0 9.7 0.00 0.00 0.00 60 1011.8
20260503032210 10 275 1.6 9.7 0.00 0.00 0.00 59 1011.8
20260503031710 10 0 3.2 6.4 0.00 0.00 0.00 59 1011.8
20260503031211 10 25 1.6 4.8 0.00 0.00 0.00 59 1011.7
20260503030710 10 307 0.0 6.4 0.00 0.00 0.00 58 1011.7
20260503030210 10 296 1.6 6.4 0.00 0.00 0.00 57 1011.8
20260503025947 10 94 3.2 6.4 0.00 0.00 0.00 57 1011.6
20260503025209 10 254 1.6 6.4 0.00 0.00 0.00 57 1011.7
20260503024710 10 37 3.2 6.4 0.00 0.00 0.00 56 1011.7
20260503024209 10 48 1.6 4.8 0.00 0.00 0.00 56 1011.7
20260503023949 10 306 1.6 6.4 0.00 0.00 0.00 56 1011.6
20260503023208 10 212 3.2 8.0 0.00 0.00 0.00 55 1011.7
20260503022948 10 0 3.2 8.0 0.00 0.00 0.00 55 1011.6
20260503022209 10 103 0.0 8.0 0.00 0.00 0.00 54 1011.7
20260503021709 11 252 3.2 16.1 0.00 0.00 0.00 54 1011.7
20260503021210 11 264 3.2 16.1 0.00 0.00 0.00 54 1011.6
20260503020708 11 313 3.2 8.0 0.00 0.00 0.00 53 1011.5
20260503020209 11 51 0.0 8.0 0.00 0.00 0.00 54 1011.5
20260503015945 11 41 0.0 6.4 0.00 0.00 0.00 56 1011.5
20260503015208 11 42 1.6 6.4 0.00 0.00 0.00 54 1011.5
20260503014708 11 0 1.6 6.4 0.00 0.00 0.00 55 1011.4
20260503014445 11 32 1.6 6.4 0.00 0.00 0.00 56 1011.4
20260503013707 11 327 0.0 4.8 0.00 0.00 0.00 56 1011.3
20260503013208 11 130 0.0 3.2 0.00 0.00 0.00 57 1011.2
20260503012706 11 178 0.0 3.2 0.00 0.00 0.00 56 1011.2
20260503012203 11 235 0.0 3.2 0.00 0.00 0.00 56 1011.2
20260503011702 11 234 0.0 3.2 0.00 0.00 0.00 57 1011.0
20260503011202 11 317 0.0 3.2 0.00 0.00 0.00 58 1011.0
20260503010703 11 320 1.6 3.2 0.00 0.00 0.00 59 1011.0
20260503010203 11 319 0.0 0.0 0.00 0.00 0.00 60 1010.9
20260503005704 11 319 0.0 1.6 0.00 0.00 0.00 58 1010.9
20260503005203 11 319 0.0 3.2 0.00 0.00 0.00 57 1010.8
20260503004704 11 319 0.0 3.2 0.00 0.00 0.00 57 1010.7
20260503004202 11 350 0.0 1.6 0.00 0.00 0.00 56 1010.5
20260503003703 11 351 0.0 1.6 0.00 0.00 0.00 56 1010.4
20260503003202 11 350 0.0 1.6 0.00 0.00 0.00 56 1010.4
20260503002702 -17 0.0 0.0 0.00 0.00 0.00 1010.4
20260503001638 11 221 0.0 1.6 0.00 0.00 0.00 56 1010.4
20260503001139 11 221 0.0 1.6 0.00 0.00 0.00 54 1010.2
20260503000638 12 221 0.0 0.0 0.00 0.00 0.00 54 1010.3
20260503000135 12 221 0.0 0.0 0.00 0.00 0.00 53 1010.2
20260502235631 12 281 0.0 3.2 0.00 0.00 0.00 53 1010.1
20260502235115 12 281 0.0 3.2 0.00 0.00 0.00 53 1010.1
20260502234615 12 281 0.0 1.6 0.00 0.00 0.00 54 1009.9
20260502234353 12 281 0.0 6.4 0.00 0.00 0.00 49 1009.9
20260502233609 12 281 1.6 6.4 0.00 0.00 0.00 51 1009.8
20260502233106 12 149 0.0 4.8 0.00 0.00 0.00 50 1009.8
20260502232606 12 149 0.0 4.8 0.00 0.00 0.00 50 1009.7
20260502232104 13 116 1.6 3.2 0.00 0.00 0.00 50 1009.7
20260502231604 13 288 0.0 8.0 0.00 0.00 0.00 50 1009.7
20260502231102 13 49 3.2 8.0 0.00 0.00 0.00 49 1009.6
20260502230602 13 320 0.0 4.8 0.00 0.00 0.00 50 1009.7
20260502225603 13 52 1.6 6.4 0.00 0.00 0.00 48 1009.7
20260502225103 13 55 1.6 4.8 0.00 0.00 0.00 47 1009.6
20260502224603 13 296 1.6 4.8 0.00 0.00 0.00 48 1009.7
20260502224103 13 266 1.6 4.8 0.00 0.00 0.00 48 1009.7
20260502223545 13 286 0.0 6.4 0.00 0.00 0.00 47 1009.7
20260502223039 13 283 0.0 6.4 0.00 0.00 0.00 47 1009.6
20260502222817 13 42 1.6 4.8 0.00 0.00 0.00 46 1009.6
20260502222039 13 134 1.6 6.4 0.00 0.00 0.00 45 1009.8
20260502221538 13 80 1.6 9.7 0.00 0.00 0.00 46 1009.6
20260502221320 13 41 1.6 9.7 0.00 0.00 0.00 45 1009.7
20260502220540 13 237 0.0 4.8 0.00 0.00 0.00 47 1009.7
20260502220319 14 18 0.0 4.8 0.00 0.00 0.00 47 1009.8
20260502215535 14 62 1.6 4.8 0.00 0.00 0.00 46 1009.7
20260502215035 14 278 0.0 4.8 0.00 0.00 0.00 47 1009.6
20260502214536 14 18 1.6 6.4 0.00 0.00 0.00 45 1009.6
20260502214034 14 63 3.2 6.4 0.00 0.00 0.00 43 1009.6
20260502213534 14 25 1.6 6.4 0.00 0.00 0.00 45 1009.5
20260502213034 14 305 1.6 9.7 0.00 0.00 0.00 47 1009.6
20260502212813 14 48 3.2 9.7 0.00 0.00 0.00 45 1009.6
20260502212314 14 34 1.6 6.4 0.00 0.00 0.00 46 1009.6
20260502211557 14 135 1.6 8.0 0.00 0.00 0.00 46 1009.6
20260502211547 15 303 1.6 4.8 0.00 0.00 0.00 46 1009.6
20260502210535 15 244 1.6 14.5 0.00 0.00 0.00 46 1009.7
20260502210034 15 350 3.2 14.5 0.00 0.00 0.00 44 1009.6
20260502205533 14 340 1.6 6.4 0.00 0.00 0.00 45 1009.6
20260502205034 14 269 1.6 6.4 0.00 0.00 0.00 45 1009.5
20260502204533 14 24 0.0 6.4 0.00 0.00 0.00 44 1009.5
20260502204314 15 303 3.2 6.4 0.00 0.00 0.00 44 1009.5
20260502203533 15 353 1.6 6.4 0.00 0.00 0.00 43 1009.5
20260502203312 15 38 1.6 9.7 0.00 0.00 0.00 44 1009.5
20260502202532 16 257 3.2 9.7 0.00 0.00 0.00 41 1009.4
20260502202034 16 279 3.2 8.0 0.00 0.00 0.00 45 1009.4
20260502201532 15 250 3.2 14.5 0.00 0.00 0.00 42 1009.4
20260502201313 16 69 3.2 14.5 0.00 0.00 0.00 42 1009.4
20260502200532 15 34 1.6 4.8 0.00 0.00 0.00 43 1009.4
20260502200033 15 257 1.6 6.4 0.00 0.00 0.00 43 1009.3
20260502195532 15 203 3.2 6.4 0.00 0.00 0.00 42 1009.4
20260502195030 15 281 3.2 14.5 0.00 0.00 0.00 42 1009.6
20260502194531 15 206 1.6 14.5 0.00 0.00 0.00 45 1009.7
20260502194031 15 298 1.6 8.0 0.00 0.00 0.00 45 1009.8
20260502193531 15 251 0.0 6.4 0.00 0.00 0.00 45 1009.9
20260502193032 15 258 3.2 8.0 0.00 0.00 0.00 44 1009.9
20260502192812 15 303 3.2 8.0 0.00 0.00 0.00 42 1009.9
20260502192031 16 286 3.2 6.4 0.00 0.00 0.00 44 1009.9
20260502191835 15 102 1.6 17.7 0.00 0.00 0.00 43 1010.2
20260502191547 16 0 1.6 8.0 0.00 0.00 0.00 42 1010.0
20260502190531 16 266 4.8 17.7 0.00 0.00 0.00 42 1010.4
20260502190031 16 293 3.2 14.5 0.00 0.00 0.00 45 1010.4
20260502185532 15 34 3.2 14.5 0.00 0.00 0.00 46 1010.5
20260502185031 16 336 1.6 6.4 0.00 0.00 0.00 41 1010.5
20260502184531 16 90 1.6 6.4 0.00 0.00 0.00 41 1010.5
20260502184031 16 164 3.2 6.4 0.00 0.00 0.00 43 1010.7
20260502183530 16 102 1.6 6.4 0.00 0.00 0.00 42 1010.6
20260502183310 16 313 1.6 6.4 0.00 0.00 0.00 45 1010.8
20260502182531 16 310 3.2 6.4 0.00 0.00 0.00 42 1010.8
20260502182030 16 37 1.6 6.4 0.00 0.00 0.00 42 1010.8
20260502181810 15 209 1.6 6.4 0.00 0.00 0.00 44 1010.9
20260502181029 16 265 1.6 9.7 0.00 0.00 0.00 41 1011.0
20260502180529 15 28 3.2 9.7 0.00 0.00 0.00 40 1011.0
20260502170308 15 56 3.2 11.3 0.00 0.00 0.00 48 1011.6
20260502164028 15 337 3.2 8.0 0.00 0.00 0.00 48 1011.9
20260502163528 15 82 3.2 8.0 0.00 0.00 0.00 48 1011.9
20260502163306 13 42 3.2 6.4 0.00 0.00 0.00 51 1011.9
20260502162527 13 45 3.2 4.8 0.00 0.00 0.00 55 1012.0
20260502162028 13 93 3.2 4.8 0.00 0.00 0.00 52 1012.0
20260502161807 13 59 1.6 4.8 0.00 0.00 0.00 56 1012.0
20260502161027 12 172 1.6 8.0 0.00 0.00 0.00 53 1012.0
20260502160527 13 302 0.0 8.0 0.00 0.00 0.00 55 1012.0
20260502160309 13 45 1.6 4.8 0.00 0.00 0.00 54 1012.1
20260502152027 12 28 3.2 11.3 0.00 0.00 0.00 55 1012.4
20260502151525 12 54 3.2 9.7 0.00 0.00 0.00 56 1012.4
20260502151026 12 72 1.6 8.0 0.00 0.00 0.00 59 1012.4
20260502150526 12 38 3.2 8.0 0.00 0.00 0.00 57 1012.5
20260502130502 10 68 1.6 8.0 0.00 0.00 0.00 65 1012.1
20260502123503 9 286 3.2 9.7 0.00 0.00 0.00 66 1012.3
20260502123002 9 175 1.6 9.7 0.00 0.00 0.00 67 1012.3
20260502122503 9 65 3.2 16.1 0.00 0.00 0.00 66 1012.3
20260502122004 9 8 3.2 16.1 0.00 0.00 0.00 67 1012.3
20260502121503 9 348 3.2 9.7 0.00 0.00 0.00 66 1012.3
20260502121002 9 37 3.2 9.7 0.00 0.00 0.00 66 1012.4
20260502120502 9 61 3.2 9.7 0.00 0.00 0.00 67 1012.1
20260502115502 8 61 1.6 11.3 0.00 0.00 0.00 69 1012.3
20260502115003 8 281 4.8 11.3 0.00 0.00 0.00 68 1012.3
20260502114503 8 237 3.2 11.3 0.00 0.00 0.00 69 1012.1
20260502114244 8 39 1.6 6.4 0.00 0.00 0.00 69 1012.0
20260502113506 8 244 3.2 6.4 0.00 0.00 0.00 69 1012.3
20260502112958 8 268 3.2 4.8 0.00 0.00 0.00 70 1012.4
20260502112458 8 295 0.0 4.8 0.00 0.00 0.00 70 1012.4
20260502112237 8 300 0.0 4.8 0.00 0.00 0.00 69 1012.5
20260502111458 8 302 0.0 8.0 0.00 0.00 0.00 69 1012.4
20260502110954 8 172 3.2 9.7 0.00 0.00 0.00 68 1012.3
20260502110454 8 293 1.6 14.5 0.00 0.00 0.00 68 1012.1
20260502105953 8 262 3.2 14.5 0.00 0.00 0.00 68 1012.0
20260502105452 8 27 3.2 14.5 0.00 0.00 0.00 69 1012.0
20260502104952 8 11 4.8 14.5 0.00 0.00 0.00 69 1011.6
20260502104452 8 283 1.6 6.4 0.00 0.00 0.00 70 1011.7
20260502103954 8 61 1.6 11.3 0.00 0.00 0.00 70 1011.7
20260502103450 8 252 3.2 11.3 0.00 0.00 0.00 69 1011.7
20260502102950 8 286 1.6 9.7 0.00 0.00 0.00 69 1011.5
20260502102448 8 24 3.2 9.7 0.00 0.00 0.00 69 1011.6
20260502101945 8 282 1.6 6.4 0.00 0.00 0.00 68 1011.5
20260502101445 8 320 3.2 6.4 0.00 0.00 0.00 69 1011.5
20260502100944 8 18 1.6 8.0 0.00 0.00 0.00 69 1011.4
20260502100446 9 257 1.6 8.0 0.00 0.00 0.00 68 1011.4
20260502091430 10 299 1.6 8.0 0.00 0.00 0.00 67 1010.7
20260502090931 10 45 3.2 8.0 0.00 0.00 0.00 67 1010.6
20260502090430 10 259 1.6 11.3 0.00 0.00 0.00 66 1010.7
20260502070920 11 285 1.6 6.4 0.00 0.00 0.00 70 1010.4
20260502070416 11 164 0.0 4.8 0.00 0.00 0.00 70 1010.5
20260502065917 11 331 1.6 4.8 0.00 0.00 0.00 70 1010.4
20260502065417 11 224 0.0 4.8 0.00 0.00 0.00 70 1010.4
20260502064918 11 213 1.6 4.8 0.00 0.00 0.00 70 1010.3
20260502064656 11 305 0.0 1.6 0.00 0.00 0.00 70 1010.1
20260502063917 11 305 0.0 4.8 0.00 0.00 0.00 69 1010.2
20260502063415 11 305 0.0 8.0 0.00 0.00 0.00 69 1010.2
20260502062914 11 63 3.2 8.0 0.00 0.00 0.00 68 1010.3
20260502062415 12 261 1.6 4.8 0.00 0.00 0.00 68 1010.3
20260502061918 12 252 1.6 6.4 0.00 0.00 0.00 67 1010.3
20260502061416 12 58 3.2 8.0 0.00 0.00 0.00 67 1010.4
20260502060917 12 258 1.6 8.0 0.00 0.00 0.00 67 1010.6
20260502060414 12 217 1.6 6.4 0.00 0.00 0.00 66 1010.6
20260502055913 12 257 1.6 6.4 0.00 0.00 0.00 66 1010.7
20260502055413 12 93 1.6 8.0 0.00 0.00 0.00 67 1010.8
20260502054914 12 37 1.6 9.7 0.00 0.00 0.00 66 1010.8
20260502054413 12 286 4.8 9.7 0.00 0.00 0.00 66 1010.7
20260502053914 12 286 1.6 6.4 0.00 0.00 0.00 67 1010.8
20260502053414 12 48 3.2 6.4 0.00 0.00 0.00 68 1010.7
20260502052913 12 345 1.6 3.2 0.00 0.00 0.00 69 1010.7